カタログに戻る

USA 579

運用中軍事VLEO
NORAD 67491·PAYLOAD·🇺🇸 United States

打ち上げ Jan 17, 2026 から Vandenberg Space Force Base

Loading…

次のパス (今後24時間)

TLE

古いSource: Mike McCants

元期: Aug 3, 2026, 20:30 UTC

1 67491U 26011H   26215.85437127 0.00000000  00000-0  00000-0 0    03
2 67491  70.0130 117.3656 0002000  94.3251 265.6749 14.96713262    05

AllMySatでUSA 579をリアルタイム追跡

Download on the App Store